Forest Hill, United Kingdom
Current Conditions -  °F | °C
As of 2:50 PM on Thursday 30 Oct 2014 (Local Time) from EGLC Reporting Station
Scattered Clouds Scattered Clouds  
Wind Chill: 66°   Ceiling: Unl
Heat Index: 66°   Visibility: 6mi
Dew Point: 57°   Wind: 7mph
Humidity: 73%   Direction: 250°WSW
Pressure: 30.06"   Gusts: NA
Location:  51.44°N, 0.05°W
Report Text: EGLC 301450Z 25006KT 220V280 9999 SCT018 19/14 Q1018
Loading
Personal Weather Stations






























Interactive Weather Map
Tropical Storm Tracking
New forecast layout! Learn more

10-Day Weather Forecast

Advertisements
Track Severe Weather on mobile